Saint Petersburg, FL

2:43 PM EST on December 05, 2016 (GMT -0500)
Whitted

Weather History for KSPG - July, 2013

Change the Weather History Date:

Thursday, July 25, 2013

  Actual Average Record
Temperature  
Mean Temperature 84 °F -  
Max Temperature 87 °F 90 °F 95 °F (1949)
Min Temperature 82 °F 76 °F 71 °F (1964)
Cooling Degree Days 20    
Growing Degree Days 34 (Base 50)    
Moisture  
Dew Point 77 °F    
Average Humidity 76    
Maximum Humidity 90    
Minimum Humidity 65    
Precipitation  
Precipitation 0.13 in - - ()
Sea Level Pressure  
Sea Level Pressure 29.95 in    
Wind  
Wind Speed 12 mph (West)    
Max Wind Speed 17 mph    
Max Gust Speed 24 mph    
Visibility 9 miles    
Events Rain , Thunderstorm    
Averages and records for this station are not official NWS values.
T = Trace of Precipitation, MM = Missing Value Source: NWS Daily Summary

Daily Weather History Graph

Daily Weather History Graph

Search for Another Location

Airport or City:

Trip Planner

Search our weather history database for the weather conditions in past years. The results will help you decide how hot, cold, wet, or windy it might be!

Date:

Astronomy

Jul. 25, 2013 Rise Set
Actual Time 6:49 AM EDT 8:23 PM EDT
Civil Twilight 6:24 AM EDT 8:49 PM EDT
Nautical Twilight 5:53 AM EDT 9:20 PM EDT
Astronomical Twilight 5:21 AM EDT 9:52 PM EDT
Moon 10:30 PM EDT (7/25) 9:55 AM EDT (7/25)
Length of Visible Light 14h 25m
Length of Day
13h 34m
Waning Gibbous, 88% of the Moon is Illuminated
Jul 25
Waning Gibbous
Jul 29
Last Quarter
Aug 6
New
Aug 14
First Quarter
Aug 20
Full

Hourly Weather History & Observations

Time (EDT) Temp. Heat Index Dew Point Humidity Pressure Visibility Wind Dir Wind Speed Gust Speed Precip Events Conditions
12:53 AM 84.9 °F 94.1 °F 75.9 °F 74% 29.91 in 10.0 mi West 6.9 mph - N/A   Clear
1:53 AM 84.0 °F 93.7 °F 77.0 °F 79% 29.90 in 10.0 mi West 9.2 mph - N/A   Clear
2:53 AM 84.0 °F 94.8 °F 78.1 °F 82% 29.89 in 10.0 mi West 10.4 mph - N/A   Scattered Clouds
3:53 AM 84.0 °F 94.8 °F 78.1 °F 82% 29.89 in 8.0 mi West 12.7 mph - N/A   Scattered Clouds
4:53 AM 84.0 °F 93.7 °F 77.0 °F 79% 29.88 in 10.0 mi West 11.5 mph - N/A   Partly Cloudy
5:53 AM 84.0 °F 93.7 °F 77.0 °F 79% 29.88 in 10.0 mi West 15.0 mph 21.9 mph N/A   Partly Cloudy
6:53 AM 84.0 °F 93.7 °F 77.0 °F 79% 29.91 in 10.0 mi West 10.4 mph - N/A   Clear
7:53 AM 84.0 °F 93.7 °F 77.0 °F 79% 29.93 in 9.0 mi West 12.7 mph 19.6 mph N/A   Scattered Clouds
8:53 AM 84.9 °F 95.3 °F 77.0 °F 77% 29.95 in 9.0 mi West 10.4 mph 19.6 mph N/A   Partly Cloudy
9:53 AM 84.9 °F 95.3 °F 77.0 °F 77% 29.96 in 10.0 mi West 15.0 mph 21.9 mph N/A   Mostly Cloudy
10:30 AM 86.0 °F 96.0 °F 75.9 °F 72% 29.98 in 10.0 mi WNW 17.3 mph 24.2 mph N/A   Mostly Cloudy
10:37 AM 86.0 °F 96.9 °F 77.0 °F 74% 29.98 in 10.0 mi WNW 12.7 mph 23.0 mph N/A   Scattered Clouds
10:53 AM 86.0 °F 96.0 °F 75.9 °F 72% 29.99 in 10.0 mi West 15.0 mph 21.9 mph N/A   Scattered Clouds
11:53 AM 87.1 °F 96.3 °F 75.0 °F 67% 30.00 in 10.0 mi WNW 15.0 mph - N/A   Partly Cloudy
12:53 PM 86.0 °F 95.1 °F 75.0 °F 70% 30.00 in 10.0 mi WNW 17.3 mph - N/A   Scattered Clouds
1:53 PM 86.0 °F 95.1 °F 75.0 °F 70% 30.00 in 10.0 mi West 16.1 mph - N/A   Partly Cloudy
2:53 PM 87.1 °F 95.4 °F 73.9 °F 65% 29.99 in 10.0 mi West 12.7 mph 21.9 mph N/A   Partly Cloudy
3:53 PM 87.1 °F 96.3 °F 75.0 °F 67% 29.98 in 10.0 mi West 12.7 mph - N/A   Mostly Cloudy
4:53 PM 86.0 °F 95.1 °F 75.0 °F 70% 29.97 in 10.0 mi WNW 15.0 mph - N/A   Mostly Cloudy
5:44 PM 86.0 °F 96.0 °F 75.9 °F 72% 29.96 in 10.0 mi West 16.1 mph 24.2 mph N/A   Mostly Cloudy
5:53 PM 86.0 °F 96.0 °F 75.9 °F 72% 29.96 in 10.0 mi West 11.5 mph - N/A   Scattered Clouds
6:30 PM 86.0 °F 96.9 °F 77.0 °F 74% 29.95 in 10.0 mi West 13.8 mph 24.2 mph N/A   Mostly Cloudy
6:53 PM 84.9 °F 95.3 °F 77.0 °F 77% 29.96 in 7.0 mi West 12.7 mph - 0.00 in Rain Light Rain
7:53 PM 84.9 °F 95.3 °F 77.0 °F 77% 29.96 in 9.0 mi West 12.7 mph - 0.00 in   Mostly Cloudy
8:53 PM 84.9 °F 95.3 °F 77.0 °F 77% 29.95 in 10.0 mi West 10.4 mph - N/A   Mostly Cloudy
9:53 PM 84.9 °F 95.3 °F 77.0 °F 77% 29.96 in 10.0 mi West 10.4 mph 21.9 mph 0.00 in   Mostly Cloudy
10:53 PM 84.9 °F 95.3 °F 77.0 °F 77% 29.97 in 10.0 mi West 10.4 mph - 0.03 in   Mostly Cloudy
11:08 PM 84.0 °F 94.8 °F 78.1 °F 82% 29.98 in 10.0 mi WNW 8.1 mph - 0.00 in Rain Light Rain
11:22 PM 82.0 °F 89.4 °F 75.9 °F 82% 29.99 in 4.0 mi West 11.5 mph 23.0 mph 0.03 in Rain Rain
11:31 PM 82.0 °F 91.0 °F 78.1 °F 88% 29.98 in 3.0 mi West 6.9 mph - 0.09 in Rain Rain
11:53 PM 82.0 °F 91.6 °F 79.0 °F 90% 29.99 in 7.0 mi North 13.8 mph 18.4 mph 0.10 in Rain , Thunderstorm Light Rain